"read_dt","SO2 (ppb)","flags","PMT voltage (V)","lamp voltage (V)","lamp intensity (Hz)","internal temp (C)","react chamber temp (C)","sample flow (l/min)","pres (mmHg)","SO2 bkg (ppb)","SO2 coefficient"
2014-03-14 00:00:00,4795E-2,5C000490,-0724,1376,5348,027.3,045.3,0.130,750.6,01.17,0.508
2014-03-14 00:01:00,4822E-2,5C000490,-0724,1376,5328,027.3,045.3,0.130,750.7,01.17,0.508
2014-03-14 00:02:00,4776E-2,5C000490,-0724,1376,5326,027.3,045.3,0.130,750.7,01.17,0.508
2014-03-14 00:03:00,4754E-2,5C000490,-0724,1376,5340,027.3,045.3,0.130,750.7,01.17,0.508
2014-03-14 00:04:00,4773E-2,5C000490,-0724,1376,5328,027.3,045.3,0.130,750.6,01.17,0.508
2014-03-14 00:05:00,4810E-2,5C000490,-0724,1376,5250,027.3,045.3,0.130,750.6,01.17,0.508
2014-03-14 00:06:00,4802E-2,5C000490,-0724,1376,5352,027.3,045.3,0.130,750.6,01.17,0.508
2014-03-14 00:07:00,4829E-2,5C000490,-0724,1376,5257,027.3,045.3,0.130,750.6,01.17,0.508
2014-03-14 00:08:00,4807E-2,5C000490,-0724,1376,5221,027.3,045.3,0.130,750.6,01.17,0.508
2014-03-14 00:09:00,4783E-2,5C000490,-0724,1376,5283,027.3,045.3,0.130,750.6,01.17,0.508
2014-03-14 00:10:00,4820E-2,5C000490,-0724,1376,5270,027.3,045.3,0.130,750.6,01.17,0.508
2014-03-14 00:11:00,4892E-2,5C000490,-0724,1376,5230,027.4,045.3,0.130,750.6,01.17,0.508
2014-03-14 00:12:00,4809E-2,5C000490,-0724,1376,5253,027.4,045.3,0.130,750.6,01.17,0.508
2014-03-14 00:13:00,4807E-2,5C000490,-0724,1376,5251,027.4,045.3,0.130,750.5,01.17,0.508
2014-03-14 00:14:00,4819E-2,5C000490,-0724,1376,5284,027.4,045.3,0.130,750.5,01.17,0.508
2014-03-14 00:15:00,4857E-2,5C000490,-0724,1376,5253,027.4,045.3,0.129,750.5,01.17,0.508
2014-03-14 00:16:00,4896E-2,5C000490,-0724,1376,5258,027.4,045.3,0.129,750.5,01.17,0.508
2014-03-14 00:17:00,4868E-2,5C000490,-0724,1376,5119,027.4,045.3,0.129,750.5,01.17,0.508
2014-03-14 00:18:00,4918E-2,5C000490,-0724,1376,5176,027.4,045.3,0.129,750.6,01.17,0.508
2014-03-14 00:19:00,4886E-2,5C000490,-0724,1376,5267,027.4,045.3,0.129,750.6,01.17,0.508
2014-03-14 00:20:00,4983E-2,5C000490,-0724,1376,5258,027.4,045.3,0.129,750.6,01.17,0.508
2014-03-14 00:21:00,4859E-2,5C000490,-0724,1376,5213,027.4,045.3,0.129,750.6,01.17,0.508
2014-03-14 00:22:00,4917E-2,5C000490,-0724,1376,5253,027.4,045.3,0.129,750.6,01.17,0.508
2014-03-14 00:23:00,4925E-2,5C000490,-0724,1376,5155,027.4,045.3,0.129,750.6,01.17,0.508
2014-03-14 00:24:00,4917E-2,5C000490,-0724,1376,5207,027.4,045.3,0.129,750.7,01.17,0.508
2014-03-14 00:25:00,4925E-2,5C000490,-0724,1376,5184,027.4,045.3,0.129,750.6,01.17,0.508
2014-03-14 00:26:00,4944E-2,5C000490,-0724,1376,5141,027.4,045.3,0.129,750.5,01.17,0.508
2014-03-14 00:27:00,4919E-2,5C000490,-0724,1376,5185,027.4,045.3,0.129,750.6,01.17,0.508
2014-03-14 00:28:00,4892E-2,5C000490,-0724,1376,5189,027.4,045.3,0.129,750.7,01.17,0.508
2014-03-14 00:29:00,4938E-2,5C000490,-0724,1376,5129,027.4,045.3,0.129,750.6,01.17,0.508
2014-03-14 00:30:00,4931E-2,5C000490,-0724,1376,5107,027.4,045.3,0.129,750.6,01.17,0.508
2014-03-14 00:31:00,4940E-2,5C000490,-0724,1376,5152,027.4,045.3,0.129,750.6,01.17,0.508
2014-03-14 00:32:00,4952E-2,5C000490,-0724,1376,5145,027.4,045.3,0.129,750.6,01.17,0.508
2014-03-14 00:33:00,4923E-2,5C000490,-0724,1376,5113,027.4,045.3,0.129,750.6,01.17,0.508
2014-03-14 00:34:00,4953E-2,5C000490,-0724,1376,5117,027.4,045.3,0.129,750.6,01.17,0.508
2014-03-14 00:35:00,4867E-2,5C000490,-0724,1376,5140,027.4,045.3,0.129,750.6,01.17,0.508
2014-03-14 00:36:00,4735E-2,5C000410,-0724,1153,9352,027.4,045.3,0.129,750.6,01.17,0.508
2014-03-14 00:37:00,4335E-2,5C000410,-0724,1136,9101,027.4,045.3,0.129,750.6,01.17,0.508
2014-03-14 00:38:00,4326E-2,5C000410,-0724,1140,9056,027.4,045.3,0.129,750.6,01.17,0.508
2014-03-14 00:39:00,4287E-2,5C000410,-0724,1146,8965,027.4,045.3,0.129,750.6,01.17,0.508
2014-03-14 00:40:00,4274E-2,5C000410,-0724,1149,9020,027.5,045.3,0.129,750.6,01.17,0.508
2014-03-14 00:41:00,4355E-2,5C000410,-0724,1151,8971,027.4,045.3,0.129,750.6,01.17,0.508
2014-03-14 00:42:00,4299E-2,5C000410,-0724,1154,9067,027.5,045.3,0.129,750.6,01.17,0.508
2014-03-14 00:43:00,4347E-2,5C000410,-0724,1156,8989,027.5,045.3,0.129,750.7,01.17,0.508
2014-03-14 00:44:00,4389E-2,5C000410,-0724,1159,8933,027.5,045.3,0.129,750.6,01.17,0.508
2014-03-14 00:45:00,4457E-2,5C000410,-0724,1162,8867,027.5,045.3,0.129,750.6,01.17,0.508
2014-03-14 00:46:00,4449E-2,5C000410,-0724,1163,8862,027.5,045.3,0.129,750.7,01.17,0.508
2014-03-14 00:47:00,4415E-2,5C000410,-0724,1165,8934,027.5,045.3,0.129,750.7,01.17,0.508
2014-03-14 00:48:00,4406E-2,5C000410,-0724,1167,8896,027.5,045.3,0.129,750.7,01.17,0.508
2014-03-14 00:49:00,4377E-2,5C000410,-0724,1170,8949,027.5,045.3,0.129,750.7,01.17,0.508
2014-03-14 00:50:00,4386E-2,5C000410,-0724,1171,8858,027.5,045.3,0.129,750.7,01.17,0.508
2014-03-14 00:51:00,4384E-2,5C000410,-0724,1173,8785,027.5,045.3,0.129,750.7,01.17,0.508
2014-03-14 00:52:00,4407E-2,5C000410,-0724,1176,8655,027.5,045.3,0.129,750.7,01.17,0.508
2014-03-14 00:53:00,4463E-2,5C000410,-0724,1177,8733,027.5,045.3,0.129,750.7,01.17,0.508
2014-03-14 00:54:00,4433E-2,5C000410,-0724,1179,8652,027.5,045.3,0.129,750.7,01.17,0.508
2014-03-14 00:55:00,4437E-2,5C000410,-0724,1181,8797,027.5,045.3,0.129,750.6,01.17,0.508
2014-03-14 00:56:00,4429E-2,5C000410,-0724,1182,8692,027.5,045.3,0.129,750.7,01.17,0.508
2014-03-14 00:57:00,4426E-2,5C000410,-0724,1183,8688,027.5,045.3,0.129,750.8,01.17,0.508
2014-03-14 00:58:00,4424E-2,5C000410,-0724,1184,8701,027.5,045.3,0.129,750.7,01.17,0.508
2014-03-14 00:59:00,4424E-2,5C000410,-0724,1186,8655,027.5,045.3,0.129,750.7,01.17,0.508
2014-03-14 01:00:00,4436E-2,5C000410,-0724,1188,8604,027.5,045.3,0.129,750.8,01.17,0.508
2014-03-14 01:01:00,4445E-2,5C000410,-0724,1189,8669,027.6,045.3,0.129,750.8,01.17,0.508
2014-03-14 01:02:00,4471E-2,5C000410,-0724,1190,8607,027.5,045.3,0.129,750.7,01.17,0.508
2014-03-14 01:03:00,4458E-2,5C000410,-0724,1193,8694,027.6,045.3,0.129,750.8,01.17,0.508
2014-03-14 01:04:00,4449E-2,5C000410,-0724,1192,8663,027.6,045.3,0.129,750.8,01.17,0.508
2014-03-14 01:05:00,4459E-2,5C000410,-0724,1195,8613,027.6,045.3,0.129,750.7,01.17,0.508
2014-03-14 01:06:00,4451E-2,5C000410,-0724,1197,8520,027.6,045.3,0.129,750.8,01.17,0.508
2014-03-14 01:07:00,4454E-2,5C000410,-0724,1199,8475,027.6,045.3,0.129,750.8,01.17,0.508
2014-03-14 01:08:00,4471E-2,5C000490,-0724,1203,8509,027.6,045.3,0.129,750.7,01.17,0.508
2014-03-14 01:09:00,4503E-2,5C000490,-0724,1205,8456,027.6,045.3,0.129,750.7,01.17,0.508
2014-03-14 01:10:00,4446E-2,5C000490,-0724,1209,8354,027.6,045.3,0.129,750.7,01.17,0.508
2014-03-14 01:11:00,4535E-2,5C000490,-0724,1215,8349,027.6,045.3,0.129,750.7,01.17,0.508
2014-03-14 01:12:00,4484E-2,5C000490,-0724,1217,8403,027.6,045.3,0.129,750.6,01.17,0.508
2014-03-14 01:13:00,4517E-2,5C000490,-0724,1220,8327,027.6,045.3,0.129,750.6,01.17,0.508
2014-03-14 01:14:00,4450E-2,5C000490,-0724,1222,8170,027.6,045.3,0.129,750.6,01.17,0.508
2014-03-14 01:15:00,4536E-2,5C000490,-0724,1225,8247,027.6,045.3,0.129,750.6,01.17,0.508
2014-03-14 01:16:00,4581E-2,5C000490,-0724,1227,8206,027.6,045.3,0.129,750.6,01.17,0.508
2014-03-14 01:17:00,4566E-2,5C000490,-0724,1229,8192,027.6,045.3,0.128,750.7,01.17,0.508
2014-03-14 01:18:00,4530E-2,5C000490,-0724,1232,8133,027.6,045.3,0.129,750.6,01.17,0.508
2014-03-14 01:19:00,4525E-2,5C000490,-0724,1235,8233,027.6,045.3,0.128,750.6,01.17,0.508
2014-03-14 01:20:00,4554E-2,5C000490,-0724,1237,8087,027.6,045.3,0.129,750.6,01.17,0.508
2014-03-14 01:21:00,4569E-2,5C000490,-0724,1239,8202,027.6,045.3,0.129,750.6,01.17,0.508
2014-03-14 01:22:00,4538E-2,5C000490,-0724,1240,8255,027.7,045.3,0.128,750.6,01.17,0.508
2014-03-14 01:23:00,4538E-2,5C000490,-0724,1243,8187,027.6,045.3,0.128,750.6,01.17,0.508
2014-03-14 01:24:00,4521E-2,5C000490,-0724,1244,8074,027.7,045.3,0.128,750.6,01.17,0.508
2014-03-14 01:25:00,4546E-2,5C000490,-0724,1244,8041,027.7,045.3,0.128,750.7,01.17,0.508
2014-03-14 01:26:00,4538E-2,5C000490,-0724,1243,8064,027.7,045.3,0.128,750.8,01.17,0.508
2014-03-14 01:27:00,4541E-2,5C000490,-0724,1246,8182,027.7,045.3,0.128,750.7,01.17,0.508
2014-03-14 01:28:00,4520E-2,5C000490,-0724,1245,8106,027.7,045.3,0.128,750.9,01.17,0.508
2014-03-14 01:29:00,4502E-2,5C000490,-0724,1245,8182,027.7,045.3,0.128,750.9,01.17,0.508
2014-03-14 01:30:00,4566E-2,5C000490,-0724,1244,8208,027.7,045.3,0.128,750.9,01.17,0.508
2014-03-14 01:31:00,4544E-2,5C000490,-0724,1244,8049,027.7,045.3,0.128,750.8,01.17,0.508
2014-03-14 01:32:00,4553E-2,5C000490,-0724,1244,8124,027.7,045.3,0.128,750.9,01.17,0.508
2014-03-14 01:33:00,4531E-2,5C000490,-0724,1243,8074,027.7,045.3,0.128,751.0,01.17,0.508
2014-03-14 01:34:00,4535E-2,5C000490,-0724,1243,8183,027.7,045.3,0.128,751.0,01.17,0.508
2014-03-14 01:35:00,4515E-2,5C000490,-0724,1244,8187,027.7,045.3,0.128,750.9,01.17,0.508
2014-03-14 01:36:00,4498E-2,5C000490,-0724,1244,8089,027.8,045.3,0.128,750.9,01.17,0.508
2014-03-14 01:37:00,4524E-2,5C000490,-0724,1245,8052,027.8,045.3,0.128,750.8,01.17,0.508
2014-03-14 01:38:00,4483E-2,5C000490,-0724,1246,8060,027.8,045.3,0.128,751.0,01.17,0.508
2014-03-14 01:39:00,4532E-2,5C000490,-0724,1246,8058,027.8,045.3,0.128,751.0,01.17,0.508
2014-03-14 01:40:00,4534E-2,5C000490,-0724,1247,8093,027.8,045.3,0.128,750.9,01.17,0.508
2014-03-14 01:41:00,4530E-2,5C000490,-0724,1247,8112,027.8,045.3,0.128,750.9,01.17,0.508
2014-03-14 01:42:00,4570E-2,5C000490,-0724,1246,8113,027.8,045.3,0.128,750.9,01.17,0.508
2014-03-14 01:43:00,4554E-2,5C000490,-0724,1247,8039,027.8,045.3,0.128,750.9,01.17,0.508
2014-03-14 01:44:00,4511E-2,5C000490,-0724,1248,8088,027.8,045.3,0.128,750.9,01.17,0.508
2014-03-14 01:45:00,4604E-2,5C000490,-0724,1247,8142,027.8,045.3,0.128,750.9,01.17,0.508
2014-03-14 01:46:00,4545E-2,5C000490,-0724,1246,8085,027.8,045.3,0.128,750.8,01.17,0.508
2014-03-14 01:47:00,4569E-2,5C000490,-0724,1245,8066,027.8,045.3,0.128,750.8,01.17,0.508
2014-03-14 01:48:00,4568E-2,5C000490,-0724,1246,8099,027.8,045.3,0.128,750.8,01.17,0.508
2014-03-14 01:49:00,4493E-2,5C000490,-0724,1249,8083,027.8,045.3,0.128,750.8,01.17,0.508
2014-03-14 01:50:00,4514E-2,5C000490,-0724,1250,8075,027.8,045.3,0.128,750.8,01.17,0.508
2014-03-14 01:51:00,4560E-2,5C000490,-0724,1251,8158,027.9,045.3,0.128,750.8,01.17,0.508
2014-03-14 01:52:00,4613E-2,5C000490,-0724,1251,8101,027.8,045.3,0.128,750.8,01.17,0.508
2014-03-14 01:53:00,4533E-2,5C000490,-0724,1250,8066,027.9,045.3,0.128,750.8,01.17,0.508
2014-03-14 01:54:00,4547E-2,5C000490,-0724,1249,8061,027.9,045.3,0.128,750.8,01.17,0.508
2014-03-14 01:55:00,4520E-2,5C000490,-0724,1251,7954,027.8,045.3,0.128,750.8,01.17,0.508
2014-03-14 01:56:00,4534E-2,5C000490,-0724,1251,7996,027.9,045.3,0.128,750.8,01.17,0.508
2014-03-14 01:57:00,4574E-2,5C000490,-0724,1252,8066,027.9,045.3,0.128,750.7,01.17,0.508
2014-03-14 01:58:00,4559E-2,5C000490,-0724,1252,8057,027.9,045.3,0.128,750.7,01.17,0.508
2014-03-14 01:59:00,4535E-2,5C000490,-0724,1253,8144,027.9,045.3,0.128,750.7,01.17,0.508
2014-03-14 02:00:00,4574E-2,5C000490,-0724,1254,8089,027.9,045.3,0.128,750.7,01.17,0.508
2014-03-14 02:01:00,4594E-2,5C000490,-0724,1254,8107,027.9,045.3,0.128,750.6,01.17,0.508
2014-03-14 02:02:00,4584E-2,5C000490,-0724,1254,8077,027.9,045.3,0.127,750.6,01.17,0.508
2014-03-14 02:03:00,4552E-2,5C000490,-0724,1254,8017,027.9,045.3,0.128,750.6,01.17,0.508
2014-03-14 02:04:00,4595E-2,5C000490,-0724,1256,7946,027.9,045.3,0.128,750.6,01.17,0.508
2014-03-14 02:05:00,5130E-2,5C000490,-0724,1266,7779,027.9,045.3,0.128,750.6,01.17,0.508
2014-03-14 02:06:00,5608E-2,5C000490,-0724,1269,7737,027.9,045.3,0.127,750.6,01.17,0.508
2014-03-14 02:07:00,5644E-2,5C000490,-0724,1269,7788,027.8,045.3,0.128,750.6,01.17,0.508
2014-03-14 02:08:00,5657E-2,5C000490,-0724,1270,7796,027.9,045.3,0.128,750.7,01.17,0.508
2014-03-14 02:09:00,5578E-2,5C000490,-0724,1273,7911,027.9,045.3,0.128,750.5,01.17,0.508
2014-03-14 02:10:00,5587E-2,5C000490,-0724,1273,7793,027.9,045.3,0.128,750.6,01.17,0.508
2014-03-14 02:11:00,5615E-2,5C000490,-0724,1273,7903,027.9,045.3,0.128,750.7,01.17,0.508
2014-03-14 02:12:00,5551E-2,5C000490,-0724,1272,7805,027.9,045.3,0.128,750.6,01.17,0.508
2014-03-14 02:13:00,5634E-2,5C000490,-0724,1273,7753,027.9,045.3,0.128,750.6,01.17,0.508
2014-03-14 02:14:00,5587E-2,5C000490,-0724,1274,7768,027.9,045.3,0.128,750.6,01.17,0.508
2014-03-14 02:15:00,5622E-2,5C000490,-0724,1275,7766,027.8,045.3,0.128,750.7,01.17,0.508
2014-03-14 02:16:00,5625E-2,5C000490,-0724,1276,7862,027.9,045.3,0.128,750.7,01.17,0.508
2014-03-14 02:17:00,5596E-2,5C000490,-0724,1278,7759,027.9,045.3,0.128,750.7,01.17,0.508
2014-03-14 02:18:00,5659E-2,5C000490,-0724,1278,7693,027.9,045.3,0.127,750.7,01.17,0.508
2014-03-14 02:19:00,5638E-2,5C000490,-0724,1279,7818,027.9,045.3,0.128,750.7,01.17,0.508
2014-03-14 02:20:00,5638E-2,5C000490,-0724,1280,7634,027.9,045.3,0.127,750.7,01.17,0.508
2014-03-14 02:21:00,5673E-2,5C000490,-0724,1280,7795,027.9,045.3,0.127,750.7,01.17,0.508
2014-03-14 02:22:00,5616E-2,5C000490,-0724,1281,7730,027.9,045.3,0.127,750.7,01.17,0.508
2014-03-14 02:23:00,5551E-2,5C000490,-0724,1282,7784,027.9,045.3,0.128,750.6,01.17,0.508
2014-03-14 02:24:00,5648E-2,5C000490,-0724,1281,7787,027.9,045.3,0.128,750.6,01.17,0.508
2014-03-14 02:25:00,5596E-2,5C000490,-0724,1282,7725,027.9,045.3,0.128,750.6,01.17,0.508
2014-03-14 02:26:00,5595E-2,5C000490,-0724,1282,7757,027.9,045.3,0.127,750.7,01.17,0.508
2014-03-14 02:27:00,5624E-2,5C000490,-0724,1283,7709,027.8,045.3,0.127,750.6,01.17,0.508
2014-03-14 02:28:00,5667E-2,5C000490,-0724,1284,7577,027.9,045.3,0.127,750.6,01.17,0.508
2014-03-14 02:29:00,5671E-2,5C000490,-0724,1285,7702,027.9,045.3,0.128,750.6,01.17,0.508
2014-03-14 02:30:00,5695E-2,5C000490,-0724,1286,7757,027.8,045.3,0.128,750.6,01.17,0.508
2014-03-14 02:31:00,5643E-2,5C000490,-0724,1287,7711,027.8,045.3,0.128,750.6,01.17,0.508
2014-03-14 02:32:00,5602E-2,5C000490,-0724,1287,7689,027.8,045.3,0.128,750.6,01.17,0.508
2014-03-14 02:33:00,5687E-2,5C000490,-0724,1288,7737,027.8,045.3,0.127,750.6,01.17,0.508
2014-03-14 02:34:00,5576E-2,5C000490,-0724,1290,7606,027.8,045.3,0.128,750.6,01.17,0.508
2014-03-14 02:35:00,5634E-2,5C000490,-0724,1290,7678,027.8,045.3,0.128,750.6,01.17,0.508
2014-03-14 02:36:00,5611E-2,5C000490,-0724,1291,7644,027.8,045.3,0.128,750.6,01.17,0.508
2014-03-14 02:37:00,5651E-2,5C000490,-0724,1293,7663,027.8,045.3,0.128,750.6,01.17,0.508
2014-03-14 02:38:00,5649E-2,5C000490,-0724,1293,7598,027.8,045.3,0.128,750.6,01.17,0.508
2014-03-14 02:39:00,5650E-2,5C000490,-0724,1292,7612,027.8,045.3,0.128,750.6,01.17,0.508
2014-03-14 02:40:00,5723E-2,5C000490,-0724,1296,7553,027.8,045.3,0.128,750.6,01.17,0.508
2014-03-14 02:41:00,5823E-2,5C000490,-0724,1299,7555,027.8,045.3,0.128,750.6,01.17,0.508
2014-03-14 02:42:00,5753E-2,5C000490,-0724,1300,7606,027.8,045.3,0.128,750.5,01.17,0.508
2014-03-14 02:43:00,5865E-2,5C000490,-0724,1301,7430,027.8,045.3,0.128,750.6,01.17,0.508
2014-03-14 02:44:00,5812E-2,5C000490,-0724,1300,7636,027.8,045.3,0.128,750.6,01.17,0.508
2014-03-14 02:45:00,5789E-2,5C000490,-0724,1299,7609,027.8,045.3,0.128,750.6,01.17,0.508
2014-03-14 02:46:00,5802E-2,5C000490,-0724,1299,7646,027.8,045.3,0.128,750.6,01.17,0.508
2014-03-14 02:47:00,5797E-2,5C000490,-0724,1299,7554,027.8,045.3,0.128,750.6,01.17,0.508
2014-03-14 02:48:00,5798E-2,5C000490,-0724,1300,7408,027.8,045.3,0.128,750.6,01.17,0.508
2014-03-14 02:49:00,5809E-2,5C000490,-0724,1302,7458,027.8,045.3,0.128,750.6,01.17,0.508
2014-03-14 02:50:00,5827E-2,5C000490,-0724,1303,7526,027.8,045.3,0.128,750.7,01.17,0.508
2014-03-14 02:51:00,5786E-2,5C000490,-0724,1303,7586,027.8,045.3,0.128,750.6,01.17,0.508
2014-03-14 02:52:00,5889E-2,5C000490,-0724,1303,7535,027.7,045.3,0.128,750.6,01.17,0.508
2014-03-14 02:53:00,5824E-2,5C000490,-0724,1303,7516,027.8,045.3,0.128,750.6,01.17,0.508
2014-03-14 02:54:00,5795E-2,5C000490,-0724,1304,7541,027.7,045.3,0.128,750.6,01.17,0.508
2014-03-14 02:55:00,5787E-2,5C000490,-0724,1305,7545,027.7,045.3,0.128,750.6,01.17,0.508
2014-03-14 02:56:00,5788E-2,5C000490,-0724,1306,7472,027.7,045.3,0.128,750.6,01.17,0.508
2014-03-14 02:57:00,5841E-2,5C000490,-0724,1305,7536,027.7,045.3,0.128,750.7,01.17,0.508
2014-03-14 02:58:00,5800E-2,5C000490,-0724,1306,7551,027.7,045.3,0.128,750.6,01.17,0.508
2014-03-14 02:59:00,5795E-2,5C000490,-0724,1310,7489,027.7,045.3,0.128,750.6,01.17,0.508
2014-03-14 03:00:00,5819E-2,5C000490,-0724,1310,7494,027.7,045.3,0.128,750.7,01.17,0.508
2014-03-14 03:01:00,5850E-2,5C000490,-0724,1310,7458,027.7,045.3,0.128,750.7,01.17,0.508
2014-03-14 03:02:00,5799E-2,5C000490,-0724,1311,7550,027.7,045.3,0.128,750.6,01.17,0.508
2014-03-14 03:03:00,5815E-2,5C000490,-0724,1311,7491,027.7,045.3,0.128,750.6,01.17,0.508
2014-03-14 03:04:00,5813E-2,5C000490,-0724,1312,7416,027.7,045.3,0.128,750.6,01.17,0.508
2014-03-14 03:05:00,5882E-2,5C000490,-0724,1313,7312,027.7,045.3,0.128,750.7,01.17,0.508
2014-03-14 03:06:00,5794E-2,5C000490,-0724,1314,7432,027.7,045.3,0.128,750.7,01.17,0.508
2014-03-14 03:07:00,5819E-2,5C000490,-0724,1312,7422,027.7,045.3,0.128,750.7,01.17,0.508
2014-03-14 03:08:00,5796E-2,5C000490,-0724,1312,7486,027.7,045.3,0.128,750.7,01.17,0.508
2014-03-14 03:09:00,5782E-2,5C000490,-0724,1314,7393,027.7,045.3,0.128,750.7,01.17,0.508
2014-03-14 03:10:00,5834E-2,5C000490,-0724,1313,7432,027.7,045.3,0.128,750.6,01.17,0.508
2014-03-14 03:11:00,5836E-2,5C000490,-0724,1313,7448,027.7,045.3,0.128,750.7,01.17,0.508
2014-03-14 03:12:00,5852E-2,5C000490,-0724,1315,7361,027.7,045.3,0.128,750.7,01.17,0.508
2014-03-14 03:13:00,5829E-2,5C000490,-0724,1317,7485,027.7,045.3,0.128,750.6,01.17,0.508
2014-03-14 03:14:00,5863E-2,5C000490,-0724,1318,7397,027.6,045.3,0.128,750.6,01.17,0.508
2014-03-14 03:15:00,5842E-2,5C000490,-0724,1319,7436,027.7,045.3,0.128,750.7,01.17,0.508
2014-03-14 03:16:00,5892E-2,5C000490,-0724,1319,7455,027.7,045.3,0.129,750.7,01.17,0.508
2014-03-14 03:17:00,5809E-2,5C000490,-0724,1318,7320,027.7,045.3,0.128,750.6,01.17,0.508
2014-03-14 03:18:00,5830E-2,5C000490,-0724,1320,7265,027.7,045.3,0.129,750.7,01.17,0.508
2014-03-14 03:19:00,5852E-2,5C000490,-0724,1321,7389,027.7,045.3,0.129,750.7,01.17,0.508
2014-03-14 03:20:00,5862E-2,5C000490,-0724,1323,7354,027.7,045.3,0.128,750.7,01.17,0.508
2014-03-14 03:21:00,5895E-2,5C000490,-0724,1323,7263,027.7,045.3,0.129,750.7,01.17,0.508
2014-03-14 03:22:00,5890E-2,5C000490,-0724,1324,7263,027.6,045.3,0.129,750.7,01.17,0.508
2014-03-14 03:23:00,5867E-2,5C000490,-0724,1325,7347,027.6,045.3,0.128,750.7,01.17,0.508
2014-03-14 03:24:00,5946E-2,5C000490,-0724,1326,7228,027.6,045.3,0.129,750.8,01.17,0.508
2014-03-14 03:25:00,5823E-2,5C000490,-0724,1326,7281,027.6,045.3,0.128,750.7,01.17,0.508
2014-03-14 03:26:00,5893E-2,5C000490,-0724,1328,7339,027.6,045.3,0.129,750.6,01.17,0.508
2014-03-14 03:27:00,5870E-2,5C000490,-0724,1328,7308,027.6,045.3,0.129,750.7,01.17,0.508
2014-03-14 03:28:00,5841E-2,5C000490,-0724,1328,7282,027.6,045.3,0.129,750.7,01.17,0.508
2014-03-14 03:29:00,5893E-2,5C000490,-0724,1328,7369,027.6,045.3,0.129,750.7,01.17,0.508
2014-03-14 03:30:00,5827E-2,5C000490,-0724,1328,7323,027.6,045.3,0.129,750.6,01.17,0.508
2014-03-14 03:31:00,5848E-2,5C000490,-0724,1328,7283,027.6,045.3,0.129,750.7,01.17,0.508
2014-03-14 03:32:00,5862E-2,5C000490,-0724,1328,7244,027.6,045.3,0.128,750.7,01.17,0.508
2014-03-14 03:33:00,5856E-2,5C000490,-0724,1329,7325,027.6,045.3,0.129,750.7,01.17,0.508
2014-03-14 03:34:00,5873E-2,5C000490,-0724,1331,7224,027.6,045.3,0.129,750.7,01.17,0.508
2014-03-14 03:35:00,5908E-2,5C000490,-0724,1331,7220,027.6,045.3,0.129,750.8,01.17,0.508
2014-03-14 03:36:00,5861E-2,5C000490,-0724,1333,7135,027.6,045.3,0.129,750.7,01.17,0.508
2014-03-14 03:37:00,5776E-2,5C000490,-0724,1337,7263,027.6,045.3,0.129,750.6,01.17,0.508
2014-03-14 03:38:00,5909E-2,5C000490,-0724,1339,7209,027.6,045.3,0.129,750.7,01.17,0.508
2014-03-14 03:39:00,5837E-2,5C000490,-0724,1340,7104,027.6,045.3,0.129,750.7,01.17,0.508
2014-03-14 03:40:00,5765E-2,5C000490,-0724,1341,7122,027.6,045.3,0.129,750.7,01.17,0.508
2014-03-14 03:41:00,5842E-2,5C000490,-0724,1340,7074,027.6,045.3,0.129,750.7,01.17,0.508
2014-03-14 03:42:00,5862E-2,5C000490,-0724,1341,7129,027.6,045.3,0.129,750.8,01.17,0.508
2014-03-14 03:43:00,5905E-2,5C000490,-0724,1341,7042,027.6,045.3,0.129,750.7,01.17,0.508
2014-03-14 03:44:00,5879E-2,5C000490,-0724,1343,7100,027.6,045.3,0.129,750.7,01.17,0.508
2014-03-14 03:45:00,5899E-2,5C000490,-0724,1344,7108,027.6,045.3,0.129,750.7,01.17,0.508
2014-03-14 03:46:00,5823E-2,5C000490,-0724,1343,7053,027.6,045.3,0.129,750.8,01.17,0.508
2014-03-14 03:47:00,5870E-2,5C000490,-0724,1342,7015,027.6,045.3,0.129,750.8,01.17,0.508
2014-03-14 03:48:00,5858E-2,5C000490,-0724,1343,7115,027.6,045.3,0.129,750.7,01.17,0.508
2014-03-14 03:49:00,5856E-2,5C000490,-0724,1344,7079,027.6,045.3,0.129,750.8,01.17,0.508
2014-03-14 03:50:00,5878E-2,5C000490,-0724,1344,7046,027.6,045.3,0.129,750.8,01.17,0.508
2014-03-14 03:51:00,4762E-2,5C000410,-0724,1151,9423,027.6,045.3,0.129,750.8,01.17,0.508
2014-03-14 03:52:00,4094E-2,5C000410,-0724,1128,9335,027.6,045.3,0.129,750.8,01.17,0.508
2014-03-14 03:53:00,4106E-2,5C000410,-0724,1129,9251,027.6,045.3,0.129,750.8,01.17,0.508
2014-03-14 03:54:00,4096E-2,5C000410,-0724,1133,9164,027.6,045.3,0.129,750.8,01.17,0.508
2014-03-14 03:55:00,4124E-2,5C000410,-0724,1135,9269,027.6,045.3,0.129,750.9,01.17,0.508
2014-03-14 03:56:00,4099E-2,5C000410,-0724,1138,9212,027.7,045.3,0.129,750.9,01.17,0.508
2014-03-14 03:57:00,4133E-2,5C000410,-0724,1140,9137,027.7,045.3,0.129,750.9,01.17,0.508
2014-03-14 03:58:00,4134E-2,5C000410,-0724,1143,9160,027.7,045.3,0.129,750.9,01.17,0.508
2014-03-14 03:59:00,4191E-2,5C000410,-0724,1145,9101,027.7,045.3,0.129,750.9,01.17,0.508
2014-03-14 04:00:00,4082E-2,5C000410,-0724,1148,9124,027.7,045.3,0.129,750.9,01.17,0.508
2014-03-14 04:01:00,4182E-2,5C000410,-0724,1148,9104,027.7,045.3,0.129,751.0,01.17,0.508
2014-03-14 04:02:00,4155E-2,5C000410,-0724,1151,8987,027.7,045.3,0.129,751.0,01.17,0.508
2014-03-14 04:03:00,4201E-2,5C000410,-0724,1153,9007,027.7,045.3,0.129,751.0,01.17,0.508
2014-03-14 04:04:00,4205E-2,5C000410,-0724,1154,9033,027.7,045.3,0.129,750.9,01.17,0.508
2014-03-14 04:05:00,4202E-2,5C000410,-0724,1154,9018,027.7,045.3,0.128,750.9,01.17,0.508
2014-03-14 04:06:00,4171E-2,5C000410,-0724,1157,8899,027.7,045.3,0.129,751.0,01.17,0.508
2014-03-14 04:07:00,4220E-2,5C000410,-0724,1158,8943,027.7,045.3,0.128,751.0,01.17,0.508
2014-03-14 04:08:00,4165E-2,5C000410,-0724,1160,9043,027.7,045.3,0.128,751.0,01.17,0.508
2014-03-14 04:09:00,4192E-2,5C000410,-0724,1162,9043,027.7,045.3,0.128,751.0,01.17,0.508
2014-03-14 04:10:00,4233E-2,5C000410,-0724,1162,8890,027.7,045.3,0.128,751.0,01.17,0.508
2014-03-14 04:11:00,4243E-2,5C000410,-0724,1162,8955,027.7,045.3,0.128,751.0,01.17,0.508
2014-03-14 04:12:00,4311E-2,5C000410,-0724,1165,8873,027.7,045.3,0.128,751.0,01.17,0.508
2014-03-14 04:13:00,4281E-2,5C000410,-0724,1166,8999,027.8,045.3,0.128,751.0,01.17,0.508
2014-03-14 04:14:00,4270E-2,5C000410,-0724,1165,8932,027.8,045.3,0.128,751.0,01.17,0.508
2014-03-14 04:15:00,4307E-2,5C000410,-0724,1167,8878,027.8,045.3,0.128,751.0,01.17,0.508
2014-03-14 04:16:00,4291E-2,5C000410,-0724,1168,8760,027.8,045.3,0.128,751.0,01.17,0.508
2014-03-14 04:17:00,4334E-2,5C000410,-0724,1170,8849,027.8,045.3,0.128,751.0,01.17,0.508
2014-03-14 04:18:00,4271E-2,5C000410,-0724,1172,8877,027.8,045.3,0.128,750.9,01.17,0.508
2014-03-14 04:19:00,4291E-2,5C000410,-0724,1173,8759,027.8,045.3,0.128,751.0,01.17,0.508
2014-03-14 04:20:00,4348E-2,5C000410,-0724,1174,8796,027.8,045.3,0.128,751.0,01.17,0.508
2014-03-14 04:21:00,4337E-2,5C000410,-0724,1176,8705,027.8,045.3,0.128,751.0,01.17,0.508
2014-03-14 04:22:00,4319E-2,5C000410,-0724,1178,8724,027.8,045.3,0.128,751.0,01.17,0.508
2014-03-14 04:23:00,4296E-2,5C000410,-0724,1178,8721,027.8,045.3,0.128,751.0,01.17,0.508